• en France
  • Liste des pays
  • À 7 jours
  • Température de l'eau
  • Carte satellitaire
  • Carte météo
  • Widgets météo
  • user-avatar
    Se connecter

    Météo par heure à Ch'ŏngjin

    Ce jour, 18 Février, Dimanche

    Heure Température Précipitation Vent Pression Humidité
    00:00 -13°C° 0 mm 3 m/s 769 mmHg 65%
    01:00 -13°C° 0 mm 3 m/s 769 mmHg 64%
    02:00 -13°C° 0 mm 3 m/s 769 mmHg 63%
    03:00 -12°C° 0 mm 2 m/s 769 mmHg 61%
    04:00 -13°C° 0 mm 2 m/s 769 mmHg 60%
    05:00 -13°C° 0 mm 2 m/s 769 mmHg 60%
    06:00 -13°C° 0 mm 2 m/s 770 mmHg 59%
    07:00 -10°C° 0 mm 2 m/s 770 mmHg 54%
    08:00 -9°C° 0 mm 2 m/s 770 mmHg 50%
    09:00 -8°C° 0 mm 2 m/s 770 mmHg 45%
    10:00 -6°C° 0 mm 2 m/s 769 mmHg 42%
    11:00 -4°C° 0 mm 2 m/s 769 mmHg 40%
    12:00 -2°C° 0 mm 2 m/s 768 mmHg 37%
    13:00 -2°C° 0 mm 2 m/s 767 mmHg 39%
    14:00 -1°C° 0 mm 3 m/s 767 mmHg 41%
    15:00 -1°C° 0 mm 3 m/s 766 mmHg 43%
    16:00 -2°C° 0 mm 3 m/s 767 mmHg 52%
    17:00 -5°C° 0 mm 3 m/s 767 mmHg 62%
    18:00 -6°C° 0 mm 3 m/s 767 mmHg 72%
    19:00 -6°C° 0 mm 2 m/s 767 mmHg 73%
    20:00 -6°C° 0 mm 2 m/s 767 mmHg 73%
    21:00 -7°C° 0 mm 2 m/s 767 mmHg 73%
    22:00 -7°C° 0 mm 2 m/s 767 mmHg 71%
    23:00 -8°C° 0 mm 2 m/s 767 mmHg 69%

    Demain, 19 Février, Lundi

    Heure Température Précipitation Vent Pression Humidité
    00:00 -7°C° 0 mm 1 m/s 768 mmHg 66%
    01:00 -8°C° 0 mm 2 m/s 768 mmHg 67%
    02:00 -8°C° 0 mm 2 m/s 767 mmHg 67%
    03:00 -8°C° 0 mm 2 m/s 767 mmHg 67%
    04:00 -8°C° 0 mm 2 m/s 767 mmHg 68%
    05:00 -9°C° 0 mm 2 m/s 767 mmHg 69%
    06:00 -10°C° 0 mm 3 m/s 767 mmHg 70%
    07:00 -9°C° 0 mm 3 m/s 767 mmHg 63%
    08:00 -8°C° 0 mm 3 m/s 767 mmHg 55%
    09:00 -7°C° 0 mm 3 m/s 767 mmHg 47%
    10:00 -5°C° 0 mm 3 m/s 767 mmHg 44%
    11:00 -2°C° 0 mm 3 m/s 766 mmHg 41%
    12:00 -1°C° 0 mm 3 m/s 766 mmHg 37%
    13:00 -2°C° 0 mm 4 m/s 765 mmHg 38%
    14:00 -2°C° 0 mm 4 m/s 765 mmHg 38%
    15:00 -1°C° 0 mm 4 m/s 764 mmHg 39%
    16:00 -2°C° 0 mm 3 m/s 765 mmHg 45%
    17:00 -4°C° 0 mm 3 m/s 765 mmHg 52%
    18:00 -6°C° 0 mm 3 m/s 765 mmHg 58%
    19:00 -7°C° 0 mm 3 m/s 766 mmHg 62%
    20:00 -9°C° 0 mm 4 m/s 766 mmHg 65%
    21:00 -10°C° 0 mm 5 m/s 767 mmHg 68%
    22:00 -11°C° 0 mm 5 m/s 767 mmHg 67%
    23:00 -11°C° 0 mm 5 m/s 767 mmHg 67%

    Après-demain, 20 Février, Mardi

    Heure Température Précipitation Vent Pression Humidité
    00:00 -12°C° 0 mm 5 m/s 767 mmHg 66%
    01:00 -12°C° 0 mm 5 m/s 767 mmHg 63%
    02:00 -12°C° 0 mm 5 m/s 767 mmHg 61%
    03:00 -12°C° 0 mm 5 m/s 767 mmHg 58%
    04:00 -12°C° 0 mm 4 m/s 767 mmHg 58%
    05:00 -12°C° 0 mm 4 m/s 766 mmHg 58%
    06:00 -12°C° 0 mm 4 m/s 766 mmHg 58%
    07:00 -11°C° 0 mm 4 m/s 766 mmHg 55%
    08:00 -11°C° 0 mm 4 m/s 767 mmHg 52%
    09:00 -11°C° 0 mm 5 m/s 767 mmHg 49%
    10:00 -10°C° 0 mm 5 m/s 766 mmHg 46%
    11:00 -7°C° 0 mm 5 m/s 766 mmHg 42%
    12:00 -6°C° 0 mm 5 m/s 766 mmHg 39%
    13:00 -6°C° 0 mm 5 m/s 766 mmHg 39%
    14:00 -6°C° 0 mm 6 m/s 765 mmHg 39%
    15:00 -6°C° 0 mm 6 m/s 765 mmHg 39%
    16:00 -7°C° 0 mm 5 m/s 765 mmHg 44%
    17:00 -8°C° 0 mm 5 m/s 766 mmHg 49%
    18:00 -10°C° 0 mm 5 m/s 766 mmHg 54%
    19:00 -11°C° 0 mm 5 m/s 767 mmHg 57%
    20:00 -11°C° 0 mm 5 m/s 768 mmHg 60%
    21:00 -12°C° 0 mm 5 m/s 768 mmHg 63%
    22:00 -12°C° 0 mm 5 m/s 768 mmHg 62%
    23:00 -13°C° 0 mm 5 m/s 769 mmHg 62%

    21 Février, Mercredi

    Heure Température Précipitation Vent Pression Humidité
    00:00 -12°C° 0 mm 4 m/s 769 mmHg 61%
    01:00 -12°C° 0 mm 4 m/s 769 mmHg 61%
    02:00 -14°C° 0 mm 4 m/s 769 mmHg 61%
    03:00 -13°C° 0 mm 3 m/s 769 mmHg 60%
    04:00 -13°C° 0 mm 3 m/s 769 mmHg 60%
    05:00 -13°C° 0 mm 3 m/s 769 mmHg 60%
    06:00 -14°C° 0 mm 3 m/s 769 mmHg 60%
    07:00 -13°C° 0 mm 3 m/s 769 mmHg 56%
    08:00 -10°C° 0 mm 3 m/s 769 mmHg 51%
    09:00 -9°C° 0 mm 3 m/s 769 mmHg 47%
    10:00 -8°C° 0 mm 3 m/s 768 mmHg 43%
    11:00 -6°C° 0 mm 3 m/s 768 mmHg 39%
    12:00 -4°C° 0 mm 3 m/s 767 mmHg 35%
    13:00 -4°C° 0 mm 3 m/s 766 mmHg 35%
    14:00 -3°C° 0 mm 4 m/s 766 mmHg 35%
    15:00 -3°C° 0 mm 4 m/s 765 mmHg 35%
    16:00 -4°C° 0 mm 4 m/s 765 mmHg 42%
    17:00 -5°C° 0 mm 3 m/s 765 mmHg 49%
    18:00 -6°C° 0 mm 3 m/s 765 mmHg 55%
    19:00 -7°C° 0 mm 3 m/s 765 mmHg 58%
    20:00 -8°C° 0 mm 3 m/s 766 mmHg 61%
    21:00 -8°C° 0 mm 3 m/s 766 mmHg 64%
    22:00 -9°C° 0 mm 3 m/s 766 mmHg 63%
    23:00 -9°C° 0 mm 3 m/s 766 mmHg 63%

    22 Février, Jeudi

    Heure Température Précipitation Vent Pression Humidité
    00:00 -9°C° 0 mm 3 m/s 766 mmHg 62%
    01:00 -9°C° 0 mm 3 m/s 766 mmHg 60%
    02:00 -10°C° 0 mm 3 m/s 766 mmHg 59%
    03:00 -10°C° 0 mm 3 m/s 765 mmHg 57%
    04:00 -10°C° 0 mm 3 m/s 765 mmHg 57%
    05:00 -10°C° 0 mm 3 m/s 765 mmHg 57%
    06:00 -10°C° 0 mm 3 m/s 765 mmHg 57%
    07:00 -9°C° 0 mm 3 m/s 765 mmHg 53%
    08:00 -8°C° 0 mm 3 m/s 765 mmHg 50%
    09:00 -7°C° 0 mm 3 m/s 765 mmHg 46%
    10:00 -5°C° 0 mm 3 m/s 765 mmHg 42%
    11:00 -2°C° 0 mm 2 m/s 764 mmHg 37%
    12:00 -1°C° 0 mm 2 m/s 764 mmHg 33%
    13:00 0°C° 0 mm 3 m/s 763 mmHg 35%
    14:00 0°C° 0 mm 3 m/s 762 mmHg 37%
    15:00 -1°C° 0 mm 4 m/s 762 mmHg 40%
    16:00 -1°C° 0,1 mm 3 m/s 762 mmHg 50%
    17:00 -2°C° 0,1 mm 3 m/s 762 mmHg 60%
    18:00 -3°C° 0,1 mm 2 m/s 762 mmHg 69%
    19:00 -3°C° 0,1 mm 2 m/s 761 mmHg 72%
    20:00 -3°C° 0,1 mm 2 m/s 761 mmHg 76%
    21:00 -4°C° 0,1 mm 2 m/s 761 mmHg 79%
    22:00 -4°C° 0,1 mm 2 m/s 761 mmHg 80%
    23:00 -4°C° 0,1 mm 2 m/s 760 mmHg 81%

    23 Février, Vendredi

    Heure Température Précipitation Vent Pression Humidité
    00:00 -4°C° 0,1 mm 2 m/s 760 mmHg 82%
    01:00 -5°C° 0,5 mm 3 m/s 760 mmHg 84%
    02:00 -7°C° 0,5 mm 4 m/s 759 mmHg 86%
    03:00 -7°C° 0,5 mm 4 m/s 759 mmHg 88%
    04:00 -7°C° 0,2 mm 5 m/s 759 mmHg 84%
    05:00 -7°C° 0,2 mm 5 m/s 759 mmHg 79%
    06:00 -8°C° 0,2 mm 6 m/s 759 mmHg 75%
    07:00 -8°C° 0 mm 7 m/s 760 mmHg 65%
    08:00 -8°C° 0 mm 8 m/s 761 mmHg 54%
    09:00 -9°C° 0 mm 9 m/s 761 mmHg 44%
    10:00 -8°C° 0 mm 9 m/s 762 mmHg 42%
    11:00 -8°C° 0 mm 9 m/s 762 mmHg 41%
    12:00 -6°C° 0 mm 9 m/s 762 mmHg 39%
    13:00 -6°C° 0 mm 9 m/s 762 mmHg 40%
    14:00 -6°C° 0 mm 9 m/s 763 mmHg 41%
    15:00 -6°C° 0 mm 8 m/s 763 mmHg 42%
    16:00 -7°C° 0 mm 8 m/s 764 mmHg 46%
    17:00 -8°C° 0 mm 8 m/s 765 mmHg 49%
    18:00 -9°C° 0 mm 7 m/s 766 mmHg 53%
    19:00 -9°C° 0 mm 7 m/s 767 mmHg 57%
    20:00 -10°C° 0 mm 6 m/s 768 mmHg 61%
    21:00 -11°C° 0 mm 6 m/s 768 mmHg 65%
    22:00 -11°C° 0 mm 6 m/s 769 mmHg 66%
    23:00 -12°C° 0 mm 5 m/s 770 mmHg 68%
    Voir plus